This is the latest recevied weather packets stored in our database for station/object K5OLV. If no packets are shown the sender has not sent any weather packets the latest 10 day(s).
| Time | Temp. | Humidity | Pressure | Rain* | Wind** | Luminosity | Snow |
|---|---|---|---|---|---|---|---|
| 1777453428 | 14.44° C | 98% | 1010.3 hPa | 0 mm | - | 0 W/m² | - |
| 1777453124 | 14.44° C | 98% | 1010.2 hPa | 0 mm | - | 0 W/m² | - |
| 1777452822 | 14.44° C | 98% | 1010.4 hPa | 0 mm | - | 0 W/m² | - |
| 1777452518 | 14.44° C | 98% | 1009.7 hPa | 0 mm | - | 0 W/m² | - |
| 1777452215 | 15° C | 98% | 1009.8 hPa | 0 mm | - | 0 W/m² | - |
| 1777451914 | 15° C | 98% | 1009.8 hPa | 1.78 mm | - | 0 W/m² | - |
| 1777451612 | 15° C | 98% | 1010.3 hPa | 1.78 mm | - | 0 W/m² | - |
| 1777451307 | 14.44° C | 98% | 1011.3 hPa | 0 mm | - | 0 W/m² | - |
| 1777451003 | 14.44° C | 98% | 1011.7 hPa | 1.27 mm | - | 0 W/m² | - |
| 1777450699 | 15° C | 98% | 1012 hPa | 3.05 mm | - | 0 W/m² | - |
| 1777450395 | 15° C | 98% | 1011.3 hPa | 3.56 mm | - | 0 W/m² | - |
| 1777450092 | 15° C | 98% | 1010.3 hPa | 6.6 mm | - | 0 W/m² | - |
| 1777449788 | 15° C | 99% | 1012.2 hPa | 7.11 mm | - | 0 W/m² | - |
| 1777449484 | 15° C | 99% | 1012.6 hPa | 6.1 mm | - | 0 W/m² | - |
| 1777449179 | 15° C | 99% | 1013.2 hPa | 6.1 mm | - | 0 W/m² | - |
| 1777448875 | 15° C | 99% | 1013.2 hPa | 6.1 mm | - | 0 W/m² | - |
| 1777448573 | 15° C | 99% | 1013.6 hPa | 6.1 mm | - | 0 W/m² | - |
| 1777448269 | 15° C | 99% | 1013.6 hPa | 3.05 mm | - | 0 W/m² | - |
| 1777447965 | 15° C | 99% | 1013.8 hPa | 1.78 mm | - | 0 W/m² | - |
| 1777442471 | 15.56° C | 98% | 1013.8 hPa | 3.05 mm | - | 0 W/m² | - |
| 1777442167 | 15.56° C | 98% | 1013.8 hPa | 3.05 mm | - | 0 W/m² | - |
| 1777441863 | 15.56° C | 98% | 1013.8 hPa | 3.05 mm | - | 0 W/m² | - |
| 1777441559 | 15.56° C | 97% | 1014 hPa | 1.78 mm | - | 0 W/m² | - |
| 1777441255 | 15.56° C | 97% | 1013.6 hPa | 1.27 mm | - | 0 W/m² | - |
| 1777440950 | 15.56° C | 97% | 1013.8 hPa | 1.27 mm | - | 0 W/m² | - |
* Rain latest hour (hover to see other rain measurements)
** Current wind speed in m/s (hover to see current wind gust speed)